TimeMST,TemperatureF,Dew PointF,Humidity,Sea Level PressureIn,VisibilityMPH,Wind Direction,Wind SpeedMPH,Gust SpeedMPH,PrecipitationIn,Events,Conditions,WindDirDegrees,DateUTC
12:53 AM,37.0,23.0,57,30.32,10.0,West,12.7,-,N/A,,Clear,260,2013-03-02 07:53:00
1:53 AM,37.0,23.0,57,30.32,10.0,West,15.0,-,N/A,,Clear,280,2013-03-02 08:53:00
2:53 AM,32.0,21.9,66,30.32,10.0,SW,6.9,-,N/A,,Clear,220,2013-03-02 09:53:00
3:53 AM,35.6,23.0,60,30.29,10.0,WNW,17.3,-,N/A,,Clear,290,2013-03-02 10:53:00
4:53 AM,36.0,23.0,59,30.30,10.0,WNW,18.4,-,N/A,,Clear,300,2013-03-02 11:53:00
5:53 AM,36.0,23.0,59,30.31,10.0,WNW,16.1,-,N/A,,Clear,290,2013-03-02 12:53:00
6:53 AM,36.0,23.0,59,30.33,10.0,West,11.5,-,N/A,,Clear,280,2013-03-02 13:53:00
7:53 AM,37.9,21.9,53,30.31,10.0,West,16.1,-,N/A,,Clear,270,2013-03-02 14:53:00
8:53 AM,41.0,24.1,51,30.30,10.0,West,12.7,-,N/A,,Clear,270,2013-03-02 15:53:00
9:53 AM,39.0,25.0,57,30.31,10.0,SSW,5.8,-,N/A,,Clear,210,2013-03-02 16:53:00
10:53 AM,45.0,23.0,42,30.27,10.0,South,8.1,-,N/A,,Clear,180,2013-03-02 17:53:00
11:53 AM,46.9,26.1,44,30.23,10.0,SSE,10.4,-,N/A,,Clear,160,2013-03-02 18:53:00
12:53 PM,48.0,27.0,44,30.20,10.0,South,9.2,-,N/A,,Clear,190,2013-03-02 19:53:00
1:53 PM,48.9,28.0,44,30.17,10.0,SSW,8.1,-,N/A,,Clear,200,2013-03-02 20:53:00
2:53 PM,50.0,27.0,41,30.16,10.0,South,4.6,-,N/A,,Clear,170,2013-03-02 21:53:00
3:53 PM,51.1,30.9,46,30.12,10.0,SSE,8.1,-,N/A,,Clear,160,2013-03-02 22:53:00
4:53 PM,46.9,30.9,54,30.12,10.0,South,10.4,-,N/A,,Clear,180,2013-03-02 23:53:00
5:53 PM,44.1,30.9,60,30.10,10.0,South,6.9,-,N/A,,Clear,180,2013-03-03 00:53:00
6:53 PM,41.0,28.9,62,30.08,10.0,SSE,3.5,-,N/A,,Clear,160,2013-03-03 01:53:00
7:53 PM,37.9,28.9,70,30.04,10.0,NE,8.1,-,N/A,,Clear,50,2013-03-03 02:53:00
8:53 PM,36.0,28.0,73,30.01,10.0,Calm,Calm,-,N/A,,Clear,0,2013-03-03 03:53:00
9:53 PM,35.1,28.0,76,30.00,10.0,West,8.1,-,N/A,,Clear,280,2013-03-03 04:53:00
10:53 PM,34.0,26.1,73,29.95,10.0,NW,8.1,-,N/A,,Clear,310,2013-03-03 05:53:00
11:53 PM,33.1,27.0,78,29.93,10.0,NW,6.9,-,N/A,,Clear,310,2013-03-03 06:53:00